Other Public Products
Issued by NWS Grand Forks, ND

Home | Current Version | Previous Version | Text Only | Print | Product List | Glossary Off
Versions: 1 2 3 4 5 6 7 8 9 10 11 12 13 14 15 16 17 18 19 20 21 22 23 24 25 26 27 28 29 30 31 32 33 34 35 36 37 38 39 40 41 42 43 44 45 46 47 48 49 50

000
FPUS83 KFGF 281510
OPUFGF
PRAIRIE TO PINES WEATHER ROUNDUP
NATIONAL WEATHER SERVICE EASTERN NORTH DAKOTA/GRAND FORKS ND
1000 AM CDT TUE MAR 28 2017

 **SATELLITE DATA USED TO AUGMENT SKY COVER AT AUTOMATED STATIONS**
 *****  WEATHER ACROSS EASTERN NORTH DAKOTA  *****

CITY           SKY/WX    TMP DP  RH WIND       PRES   REMARKS
GRAND FORKS    FAIR      37  34  89 N12       30.18R
GRAND FORKS AF FAIR      36  34  92 N10       30.18S
GRAND CITY NWS NOT AVBL
BUXTON         NOT AVBL
DEVILS LAKE    CLOUDY    35  31  85 E12       30.17R
FARGO          FOG       34  34 100 NE5       30.17R VSB 1/4
WAHPETON ARPT    N/A     32  32 100 N6        30.17R VSB 1/2
$$

 *****  WEATHER ACROSS CENTRAL AND WESTERN NORTH DAKOTA  *****

CITY           SKY/WX    TMP DP  RH WIND       PRES   REMARKS
JAMESTOWN      CLOUDY    34  34 100 E5        30.13S FOG
BISMARCK       FOG       35  34  96 E8        30.13R VSB 1/2
MINOT          FOG       35  35 100 E7        30.12S VSB 1/4
MINOT AFB      FOG       34  34  99 SE12      30.11F VSB 1/2
GARRISON         N/A     34  34 100 SE7       30.11R
WILLISTON      PTSUNNY   40  36  86 NE5       30.07R
DICKINSON      CLOUDY    35  32  88 NE5       30.05R
HETTINGER      FAIR      42  34  73 SE5       30.07R
$$

 *****  OTHER OBSERVATIONS NORTHEAST NORTH DAKOTA  *****

CITY           SKY/WX    TMP DP  RH WIND       PRES   REMARKS
WALHALLA       NOT AVBL
LANGDON        CLOUDY    32  32 100 NE7       30.19R
CAVALIER       PTSUNNY   32  30  93 N10       30.22R WCI  24
GRAFTON        PTSUNNY   34  34 100 NW9       30.23R
CANDO          NOT AVBL
FORT TOTTEN      N/A     41  39  91 NE3       29.95S
ROLLA          FAIR      32  32 100 N9        30.17R WCI  24
RUGBY          NOT AVBL
 ***** THE ABOVE OBSERVATIONS ARE NON NWS ARE NOT QUALITY
        CONTROLLED AND MAY MIS-REPORT RAIN FOR SNOW...
$$

 *****  OTHER OBSERVATIONS SOUTHEAST NORTH DAKOTA *****

CITY           SKY/WX    TMP DP  RH WIND       PRES   REMARKS
COOPERSTOWN    FAIR      37  36  93 NE6       30.16S
VALLEY CITY    FAIR      37  37 100 NE6       30.16S
OAKES          NOT AVBL
GWINNER        FOG       32  32 100 MISG      30.16R VSB 0
SHEYENNE NWR     N/A     32  32 100 N2        29.95S
BUFFALO        NOT AVBL
WYNDMERE       NOT AVBL
 ***** THE ABOVE OBSERVATIONS ARE NON NWS ARE NOT QUALITY
       CONTROLLED AND MAY MIS-REPORT RAIN FOR SNOW...
$$

  *****  WEATHER ACROSS NORTHERN MINNESOTA  *****

CITY           SKY/WX    TMP DP  RH WIND       PRES   REMARKS
FLAG ISLAND    FAIR      34  27  75 N7        30.19S
WARROAD        FAIR      37  30  75 NE6       30.21R
ROSEAU         FAIR      39  32  75 NE5       30.20R
HALLOCK        FAIR      37  32  81 N3        30.20R
THF RVR FALLS    N/A     42  32  67 NE8       30.18R
HALSTAD          N/A     37  37 100 NE8         N/A
FOSSTON        FAIR      41  37  87 NE5       30.16R
BAUDETTE       FAIR      44  29  55 CALM      30.17R
WASKISH        FAIR      45  32  61 CALM      30.16S
CROOKSTON      CLOUDY    36  36 100 N6        30.18S
$$
  *****  WEATHER ACROSS CENTRAL AND WEST MINNESOTA  *****

CITY           SKY/WX    TMP DP  RH WIND       PRES   REMARKS
BEMIDJI        PTSUNNY   39  31  71 CALM      30.14R
PARK RAPIDS    FAIR      46  29  51 CALM      30.13R
WADENA         FAIR      43  34  70 CALM      30.13S
DETROIT LAKES  FAIR      43  37  81 N5        30.15R
MOORHEAD       FOG       30  30 100 N6        30.18R VSB<1/4 WCI  24
FERGUS FALLS   FAIR      43  37  81 CALM      30.18R
ELBOW LAKE     FAIR      42  37  82 CALM      30.15R
MORRIS MN      FAIR      45  36  70 CALM      30.14R
STAPLES        FAIR      41  36  81 CALM      30.13S
WHEATON        FOG       34  32  93 NW6       30.18S VSB<1/4
$$
  *****  WEATHER ELSEWHERE ACROSS MINNESOTA  *****

CITY           SKY/WX    TMP DP  RH WIND       PRES   REMARKS
DULUTH         FAIR      47  34  60 SW3       30.13R
INTRNTL FALLS  FAIR      41  28  60 NE3       30.16R
ELY            FAIR      39  28  65 CALM      30.14R
CLOQUET        FAIR      46  32  57 CALM      30.14R
BRAINERD       FAIR      45  34  65 SW5       30.14R
HIBBING        FAIR      39  34  82 CALM      30.13S
ALEXANDRIA     FAIR      49  38  65 CALM      30.15R
SAINT CLOUD    FAIR      46  37  71 CALM      30.14R
MINNEAPOLIS    FAIR      47  37  68 CALM      30.14R
$$

  *****  WEATHER ACROSS SOUTH DAKOTA  *****

CITY           SKY/WX    TMP DP  RH WIND       PRES   REMARKS
SIOUX FALLS    PTSUNNY   47  41  80 CALM      30.13R
BROOKINGS      FAIR      46  39  76 CALM      30.12R
WATERTOWN      FAIR      43  37  79 CALM      30.12R
HURON          FAIR      43  40  89 SE5       30.13R
SISSETON         N/A     33  33 100 N5        30.15R
ABERDEEN       FAIR      39  33  79 NE7       30.14R
MITCHELL       FAIR      46  41  82 S7        30.13R
PIERRE         CLOUDY    47  40  76 E8        30.06R
MOBRIDGE       FAIR      43  35  73 E7        30.06
RAPID CITY     LGT RAIN  42  34  73 N3        30.01R
$$

  *****  SOME WEATHER IN NEARBY STATES *****

CITY           SKY/WX    TMP DP  RH WIND       PRES   REMARKS
GLASGOW MT     PTSUNNY   38  34  85 SE3       30.08R
GREAT FALLS MT FAIR      39  27  62 SW15      30.10R
CHEYENNE WY    CLOUDY    38  37  97 N15       29.89S FOG
SCOTTSBLUFF NE CLOUDY    46  43  89 SE13      29.92R
OMAHA NE       CLOUDY    43  39  86 N6        30.12R
DES MOINES IA  CLOUDY    48  42  80 NE6       30.11R
DAVENPORT IA   CLOUDY    47  45  93 E12       30.12R FOG
CHICAGO IL     CLOUDY    43  37  79 NE12      30.11R
EAU CLAIRE WI  FOG       32  32 100 CALM      30.16R VSB 1/4
LA CROSSE WI   FOG       38  38 100 W3        30.16R VSB 1/2
$$

  *****  SOME NATIONAL WEATHER *****

CITY           SKY/WX    TMP DP  RH WIND       PRES   REMARKS
LA GUARDIA NY  CLOUDY    43  40  89 NE5       29.99R FOG
RALEIGH NC     PTSUNNY   65  60  84 SW13      29.95R
ATLANTA GA     PTSUNNY   67  63  87 SW10      30.01R
NEW ORLEANS LA PTSUNNY   75  70  84 S7        30.03R
OKLAHOMA CITY  CLOUDY    53  48  83 E15       29.96S
ALBUQUERQUE NM LGT RAIN  43  40  89 NE12      29.84F
SALT LAKE CITY PTSUNNY   40  32  73 NW13      30.13R
LOS ANGELES CA FAIR      57  50  77 SE6       30.03R
BOISE ID       FAIR      36  31  82 CALM      30.27R
SEATTLE WA     LGT RAIN  46  41  82 S9        30.20S
$$

*** WEATHER ACROSS MANITOBA...SASKATCHEWAN AND ONTARIO ***
                ***ONTARIO***

CITY           SKY/WX    TMP DP  RH WIND       PRES   REMARKS
GERALDTON      CLOUDY    28  21  74 N6        30.18S WCI  22
THUNDER BAY    PTSUNNY   41  30  65 VRB2      30.16R
SIOUX LOOKOUT  PTSUNNY   30  19  64 NE7       30.21R WCI  23
TORONTO        CLOUDY    43  37  81 N15       29.99R
BIG TROUT LK   FLURRIES  16  10  79 N6        30.32R WCI   7
PICKLE LAKE    PTSUNNY   23  14  68 N3        30.25R
DRYDEN         SUNNY     32  23  69 NE9       30.19R WCI  24
KENORA         PTSUNNY   32  23  69 E8        30.20R WCI  25
$$
                *** MANITOBA***

CITY           SKY/WX    TMP DP  RH WIND       PRES   REMARKS
BRANDON        CLOUDY    28  25  86 E13       30.24R WCI  18
DAUPHIN        CLOUDY    27  23  86 E3        30.27R
ISLAND LAKE    NOT AVBL
PILOT MOUND      N/A     30  28  93 NE3         N/A
THE PAS        CLOUDY    19  12  73 SE8       30.30S WCI   9
THOMPSON       PTSUNNY    9   3  78 CALM      30.39R
WINNIPEG       MOSUNNY   32  27  80 NE10      30.24S WCI  24
LYNN LAKE      FLURRIES   9   9 100 SE6       30.31S WCI  -1
CHURCHILL      FOG       -2  -8  78 NW2       30.48S VSB 1
GILLAM         FLURRIES  14   3  62 CALM      30.44R
$$
                ***SASKATCHEWAN***

CITY           SKY/WX    TMP DP  RH WIND       PRES   REMARKS
ESTEVAN        CLOUDY    32  32 100 E13       30.11F FOG     WCI  22
KINDERSLEY     PTSUNNY   39  36  87 SE13      29.95S
LLOYDMINSTER   CLOUDY    34  34 100 SE13      29.96R FOG     WCI  25
PRINCE ALBERT  CLOUDY    30  27  86 E12       30.11S WCI  21
REGINA         CLOUDY    34  32  93 SE13      30.11S WCI  25
YORKTON        CLOUDY    32  28  86 SE9       30.18R W



USA.gov is the U.S. government's official web portal to all federal, state and local government web resources and services.